Wind_Speed
35 35 35 34 34 34 35 35 35 35 36 35 35 34 34 33 33 34 34 34 35 35 35 36 36 36 37 37 38 38 39 41 42 43 44 45 46 47 47 47 47 48 48 50 50 51 50 49 48 46 45 44 44 43 43 43 43 43 43 43 43 43 43 44 43 43 43 42 42 42 42 44 43 42 40 40 41 43 44 44 44 43 42 40 38 37
34 34 34 33 33 34 36 37 36 35 36 36 36 35 35 35 35 35 35 35 36 36 36 36 37 37 38 38 39 39 40 42 43 44 45 45 46 46 47 47 47 47 48 49 50 50 50 49 48 48 47 46 45 44 44 44 44 45 45 45 45 45 45 45 45 44 44 44 43 43 44 46 46 44 40 37 36 37 39 41 42 43 42 40 39 38
34 33 34 33 33 34 36 37 36 36 36 36 36 36 36 36 36 36 35 35 35 36 35 36 36 36 37 38 39 40 41 42 43 45 46 47 47 48 48 47 47 47 47 48 49 50 50 50 50 49 48 47 47 46 46 45 45 45 46 46 46 46 46 46 46 46 45 45 44 44 44 46 47 47 44 41 37 35 34 34 36 37 39 39 39 39
33 33 33 33 33 34 35 36 36 36 36 36 36 36 36 36 36 36 35 35 35 35 35 35 35 36 37 37 38 38 39 41 42 44 46 47 48 48 48 48 47 47 47 48 50 51 51 51 51 50 50 49 48 48 47 46 46 46 46 46 47 47 47 47 47 46 46 45 45 45 45 46 47 47 47 47 45 41 37 34 32 31 32 34 35 37
33 32 32 32 32 33 35 35 35 35 35 35 35 35 35 35 35 35 35 34 34 34 34 34 34 35 35 35 36 37 38 39 41 43 44 46 47 47 48 48 48 48 48 49 50 51 51 51 51 51 51 50 50 49 48 47 47 47 46 47 47 47 48 47 47 47 46 46 45 45 45 45 46 47 47 48 48 46 43 40 36 33 31 31 31 33
34 33 32 32 32 32 33 33 33 33 33 33 34 34 34 34 34 34 34 33 33 33 33 33 33 33 34 35 36 37 38 39 40 41 42 43 44 45 46 47 48 48 49 50 50 51 51 51 51 52 52 52 51 51 50 48 48 47 47 47 47 47 48 47 47 46 46 45 45 45 45 45 46 47 48 48 47 46 45 44 41 38 35 33 32 32
34 33 32 31 31 32 32 33 33 33 32 32 33 34 34 34 34 33 33 32 32 33 33 34 34 34 34 35 36 36 37 37 38 39 40 41 43 44 46 47 48 49 50 50 50 50 51 51 52 52 53 53 53 52 51 49 49 48 48 47 47 47 47 47 47 46 45 45 45 46 46 46 46 47 48 48 48 47 46 45 44 41 38 36 35 34
33 34 33 31 31 31 32 33 33 33 32 32 32 33 34 34 34 34 34 33 32 33 34 34 34 34 33 34 34 35 35 35 36 38 38 40 41 43 45 47 49 49 50 50 50 50 51 51 52 52 53 53 53 52 51 50 49 49 48 48 47 47 47 48 48 47 46 45 45 46 46 46 46 46 47 48 48 48 47 47 46 44 41 39 37 36
33 33 33 33 32 30 32 34 34 34 32 32 31 32 32 33 34 34 34 34 34 33 33 33 33 33 34 34 34 35 35 36 36 37 37 39 41 42 44 46 47 47 47 48 49 50 50 51 52 52 52 52 52 51 50 49 49 49 48 48 47 47 47 48 49 48 47 47 46 46 46 46 46 46 47 47 48 48 48 48 48 46 44 42 39 38
33 33 33 33 33 32 31 33 34 35 33 32 32 32 32 32 32 32 32 33 33 33 32 31 32 32 33 34 34 35 36 36 37 38 39 39 40 41 43 43 43 44 45 46 48 49 50 51 51 51 51 51 50 50 50 50 49 49 49 48 48 48 48 49 50 50 49 49 48 48 48 47 47 47 47 47 48 48 48 48 49 49 47 45 43 41
32 32 31 31 32 32 32 32 33 33 32 32 32 33 33 32 30 28 27 29 32 33 32 31 31 31 32 33 33 33 34 34 36 37 38 40 40 41 42 43 43 43 44 46 48 49 50 50 50 50 50 50 50 50 50 51 50 50 49 49 48 49 49 50 50 50 50 50 49 49 49 49 49 48 48 48 48 48 48 49 50 50 50 49 46 44
29 30 29 29 30 30 31 32 32 31 30 29 28 28 30 31 29 27 25 26 29 32 32 32 31 31 31 31 31 31 31 31 31 31 32 33 34 35 36 37 39 41 43 44 45 47 47 47 47 47 47 48 49 49 50 50 50 50 50 49 49 50 50 50 50 50 50 50 50 49 49 49 49 48 48 48 48 48 48 49 50 50 51 51 49 47
29 29 28 28 29 29 29 29 29 28 27 26 24 23 25 27 28 27 26 27 29 31 32 32 32 32 32 31 30 30 30 29 29 29 28 29 30 30 31 32 34 36 37 38 40 41 41 41 42 43 43 44 46 47 47 48 48 49 49 49 50 50 50 51 51 51 50 50 50 49 49 49 48 48 48 48 47 47 47 48 49 50 50 51 51 49
28 28 28 27 27 28 29 28 27 25 26 26 27 27 28 28 28 27 27 27 29 31 32 31 32 32 33 33 32 31 30 30 30 30 30 31 31 32 32 33 33 34 34 34 35 36 37 37 37 38 40 41 42 43 43 44 45 46 47 48 49 50 51 51 51 51 50 50 50 49 49 48 48 48 48 48 48 47 47 47 48 48 49 50 50 50
27 25 22 20 23 27 29 29 28 27 28 30 30 31 30 29 28 27 26 26 29 30 30 30 31 32 33 33 33 32 31 31 30 30 31 33 34 34 33 33 33 33 33 33 34 35 36 37 37 37 38 39 40 40 41 41 42 43 44 46 47 48 50 50 51 51 50 50 49 49 48 48 49 49 50 49 48 47 46 46 46 47 48 48 49 50
28 25 19 17 21 27 30 30 28 28 30 31 31 30 28 28 28 27 26 27 28 28 27 25 24 24 28 33 34 32 30 29 29 28 29 30 32 33 32 32 32 31 32 33 34 35 36 37 38 38 38 39 39 40 41 41 42 43 44 44 45 46 48 49 50 50 50 50 49 49 49 49 50 50 50 49 48 47 46 45 45 46 46 47 48 49
29 27 24 21 23 28 32 31 31 30 30 31 30 29 28 27 27 28 28 28 28 26 23 19 13 9 14 26 31 30 28 27 26 26 27 28 30 31 31 31 30 29 31 34 36 37 37 37 37 37 37 38 39 40 41 42 43 44 45 45 46 47 48 50 50 50 49 48 48 48 48 48 48 48 47 47 46 46 46 45 45 45 46 47 47 48
30 29 28 24 25 28 32 32 31 31 30 30 30 29 29 28 28 27 28 28 26 24 22 19 14 9 8 10 20 29 27 26 25 24 24 25 26 29 30 30 30 30 30 32 34 35 36 36 36 36 36 38 39 40 41 43 45 46 47 47 48 48 49 48 47 47 46 45 45 45 45 45 45 45 45 45 46 46 46 46 46 46 46 46 47 47
31 31 29 27 28 30 31 32 32 31 30 30 29 29 28 29 29 28 26 26 25 23 22 18 16 15 15 18 26 31 29 27 25 22 21 23 25 28 29 29 28 27 28 30 32 34 34 34 35 35 36 38 39 41 43 44 46 47 47 47 47 46 45 42 40 40 40 40 41 42 42 42 43 44 44 45 46 46 47 47 47 46 46 46 46 47
33 34 33 32 31 31 31 33 34 34 33 32 30 28 27 28 29 29 29 28 27 27 26 22 20 22 25 28 32 34 32 29 26 24 23 24 27 29 29 27 25 24 25 28 30 32 32 33 34 35 36 38 40 42 42 43 43 43 42 41 40 40 40 38 37 37 37 38 40 41 43 44 44 45 45 45 45 46 47 47 47 47 46 46 46 46
34 35 38 38 35 32 30 34 37 37 36 34 30 27 26 26 27 28 29 29 29 28 27 23 23 26 29 31 33 35 34 30 27 24 23 23 25 29 31 30 27 25 25 28 31 32 32 32 33 34 36 38 41 41 40 40 39 37 36 36 36 37 37 37 37 37 38 39 41 42 43 44 43 43 43 42 42 43 44 44 44 44 44 44 44 44
38 39 42 42 40 37 36 38 39 39 38 35 32 29 27 27 27 27 29 29 27 26 27 27 29 31 31 32 34 36 36 33 29 25 22 16 20 29 34 33 29 27 28 31 33 34 34 34 34 35 37 40 41 40 38 38 37 36 36 37 38 38 38 37 36 36 37 38 38 38 37 36 35 35 34 35 35 36 37 38 39 40 40 40 40 41
43 45 47 46 44 42 42 41 41 40 39 36 35 35 34 32 30 29 29 30 30 29 29 31 33 34 34 34 35 37 36 34 30 27 22 13 16 26 32 32 30 28 29 32 34 34 34 34 34 35 37 39 39 39 38 38 37 38 38 39 39 39 39 39 37 35 34 33 32 31 30 28 28 28 28 29 31 32 34 35 36 37 37 38 39 40
46 48 49 47 45 43 42 41 40 40 39 36 35 36 38 37 36 36 36 36 35 34 32 32 30 30 32 34 35 36 36 35 32 28 22 14 16 24 32 31 28 27 29 32 34 34 33 33 34 34 35 37 38 38 38 38 39 39 38 37 37 37 37 36 34 32 30 29 28 28 29 29 29 29 29 30 31 33 34 35 36 36 37 38 39 40
46 46 46 46 46 46 45 45 44 43 41 38 36 37 37 37 37 38 38 36 35 34 32 30 25 23 27 29 31 33 35 34 31 26 22 16 19 26 30 30 28 27 29 33 35 34 33 32 33 34 34 36 37 37 38 38 38 39 38 36 34 33 33 32 31 29 28 28 28 29 30 31 31 31 31 32 33 34 35 36 37 37 38 39 40 41
49 49 49 49 49 49 49 49 48 47 45 42 39 37 35 35 34 33 31 30 30 29 26 21 16 16 21 25 27 29 33 33 31 28 23 17 17 22 29 31 29 27 28 32 33 31 29 28 29 30 32 34 35 37 37 38 38 38 39 37 35 33 32 32 31 30 30 30 31 32 32 32 32 32 33 33 34 34 35 36 36 37 38 38 39 41
55 55 55 54 54 54 53 53 52 52 51 48 45 42 40 36 32 27 24 27 28 26 19 12 11 14 16 18 22 26 31 31 29 28 26 20 16 17 25 29 29 27 27 28 29 28 27 26 27 29 30 32 34 35 37 37 38 39 39 38 36 35 33 33 33 33 32 32 33 34 34 33 33 33 33 33 34 34 35 35 36 36 37 37 38 39
53 55 56 57 57 57 57 57 57 56 54 53 51 49 46 40 32 26 25 29 29 24 17 13 12 12 11 10 17 26 30 29 28 27 26 21 14 14 23 27 27 25 24 24 26 27 27 28 28 30 31 32 34 35 36 38 38 38 38 37 35 34 34 34 34 34 34 34 34 34 34 34 34 34 34 34 34 34 35 35 35 36 36 36 37 38
42 45 48 51 53 55 57 58 58 57 57 56 55 53 50 44 37 31 31 33 30 23 16 13 12 11 11 11 17 24 26 28 29 28 25 19 14 15 23 25 25 24 22 20 21 24 26 29 30 30 31 33 34 35 36 37 37 37 36 35 34 34 34 34 34 34 34 34 34 34 34 34 34 34 34 34 34 34 34 35 35 35 35 35 36 36
35 36 38 41 43 46 48 51 52 54 55 55 55 54 52 48 42 39 38 34 29 23 17 15 14 14 12 12 12 14 17 26 30 28 24 16 12 14 21 23 24 24 21 16 12 13 18 25 29 30 30 32 33 35 35 36 35 35 34 34 33 34 34 34 33 33 33 33 33 33 34 34 34 34 34 34 34 34 34 34 34 34 34 34 34 34
37 36 35 36 37 37 39 40 43 45 47 49 50 51 50 48 45 41 38 35 30 26 23 21 21 20 16 9 6 6 7 22 28 26 22 16 13 16 21 20 22 23 22 16 7 3 7 12 21 28 27 27 29 31 32 32 32 32 32 32 33 33 33 33 32 32 32 33 33 33 34 34 35 35 35 35 34 34 34 34 33 33 33 33 32 33
37 36 36 36 35 34 33 33 34 36 38 40 41 43 44 45 45 42 39 36 32 29 29 28 27 25 23 14 10 9 10 23 27 25 22 17 16 18 21 20 20 22 23 21 13 6 5 4 14 24 24 23 24 25 27 28 29 30 30 31 32 33 34 32 31 30 30 31 31 32 33 33 34 35 35 34 34 34 34 34 33 33 33 32 31 32
35 35 34 34 34 33 32 32 32 32 34 34 35 37 40 41 42 41 39 36 33 31 30 28 27 25 24 22 20 20 24 29 30 27 24 20 17 18 21 21 21 22 23 23 20 15 10 8 14 22 23 22 22 23 24 26 27 28 29 30 31 32 33 31 30 29 29 29 30 30 31 31 32 33 33 33 33 33 33 34 34 33 33 32 31 31
32 32 32 32 31 31 31 31 31 31 32 32 33 34 35 35 36 37 37 36 34 33 31 29 27 25 22 20 20 23 30 33 32 29 26 23 20 19 21 22 22 22 22 21 20 19 16 17 18 19 18 20 21 22 24 25 27 28 29 29 29 30 31 30 29 28 28 28 29 30 30 30 30 30 31 32 32 33 34 34 32 31 32 33 33 32
28 29 29 28 27 27 28 30 30 30 29 30 31 31 31 31 32 33 34 34 35 34 34 33 31 30 27 22 18 19 27 32 32 29 26 25 23 22 22 23 24 24 21 19 17 13 10 14 18 16 11 11 13 17 23 26 27 28 28 28 28 28 29 28 27 26 27 27 28 29 29 29 29 29 30 30 31 32 32 31 29 27 28 31 33 33
25 26 26 25 25 25 25 26 27 27 27 28 29 29 30 30 30 31 32 33 33 34 34 34 34 34 33 31 28 26 30 32 31 28 27 27 26 24 21 23 26 26 22 19 16 12 8 9 14 16 12 7 6 10 17 22 25 26 26 26 26 26 26 25 24 24 24 24 25 26 26 26 26 26 27 28 29 29 29 27 24 22 23 26 30 34
23 23 25 25 25 25 25 25 26 26 26 27 27 28 29 29 30 30 31 32 32 32 33 34 34 35 35 35 35 34 35 34 32 29 28 28 27 25 23 24 26 26 23 19 16 14 11 8 9 10 9 8 5 5 10 15 19 20 21 21 21 20 20 20 20 20 20 21 21 21 21 20 20 20 21 22 23 23 23 22 20 18 19 21 24 28
21 22 23 24 24 23 24 25 26 26 26 26 27 27 28 29 30 30 30 32 33 33 32 32 32 34 36 37 37 38 37 36 33 31 30 29 28 26 24 24 25 25 25 23 21 17 11 8 8 8 7 7 9 10 10 11 13 14 16 16 16 15 14 14 14 15 16 17 18 17 16 15 15 14 14 15 16 17 17 17 16 16 17 17 17 18
20 21 23 23 24 24 24 25 27 28 27 27 26 26 27 28 29 30 31 32 33 33 34 33 33 33 35 37 38 39 39 38 37 35 34 32 31 29 27 25 25 26 27 27 25 22 16 12 9 9 8 6 6 9 11 11 12 12 13 12 10 9 9 9 10 11 12 13 14 14 13 12 10 9 8 8 9 9 9 9 10 12 14 14 12 10
20 20 22 23 24 24 25 27 28 29 28 27 26 26 25 26 27 29 30 31 32 32 33 34 34 34 34 35 36 37 38 38 37 36 35 34 34 32 30 27 26 27 27 27 26 25 23 19 16 15 13 8 4 4 7 10 11 11 10 7 6 6 5 6 6 8 9 9 10 10 10 9 7 6 5 5 5 5 4 4 5 6 8 9 7 6
20 21 22 22 23 25 27 28 29 29 28 26 24 23 23 22 23 24 26 27 28 29 30 31 32 32 33 34 35 36 36 36 35 33 33 33 34 33 32 30 28 26 25 24 23 23 22 19 17 16 16 13 8 6 6 8 10 10 8 6 5 5 3 3 3 4 5 6 7 7 7 6 5 4 4 5 6 7 8 7 7 7 7 8 7 6
20 20 21 22 23 25 27 28 28 27 27 25 23 22 22 21 21 20 20 22 23 24 25 25 26 26 26 28 30 30 29 28 27 26 27 28 29 30 30 30 28 25 23 20 19 19 20 19 17 15 14 12 8 5 4 7 9 8 6 5 5 4 2 1 1 1 1 2 4 4 5 4 4 3 5 7 10 11 12 12 11 11 11 10 9 9
20 21 22 23 24 25 27 27 25 22 20 20 21 21 21 22 21 21 20 19 20 21 22 22 22 21 19 18 17 16 14 13 12 13 15 18 21 23 26 27 27 26 24 21 19 19 20 18 15 13 11 11 9 6 3 5 6 5 3 3 2 2 3 2 1 1 1 1 1 2 3 3 3 4 7 10 13 15 16 16 15 14 14 14 14 13
21 22 23 24 25 26 25 23 21 18 16 14 14 15 17 18 19 19 18 17 17 17 18 18 17 16 14 11 7 4 2 1 0 3 6 9 12 15 18 21 24 26 26 24 21 16 12 8 6 5 7 9 9 8 6 5 5 5 3 2 1 2 2 2 3 4 4 3 1 1 2 2 4 6 9 13 16 18 19 19 19 18 18 18 17 17
22 22 22 22 22 21 20 19 19 19 17 15 13 12 12 12 13 13 13 13 12 12 13 13 11 8 5 3 3 4 5 6 5 4 2 2 3 5 7 10 13 16 17 17 14 9 5 4 5 6 9 10 10 8 6 6 6 6 6 5 5 4 4 3 4 5 6 5 3 1 1 2 4 6 10 13 17 19 20 20 20 20 20 20 20 20
20 19 19 19 18 18 17 17 17 17 16 14 13 12 11 11 11 12 12 12 11 11 11 11 7 3 1 3 3 4 5 7 8 8 8 7 7 6 5 4 5 6 6 6 7 8 9 8 7 8 9 10 10 9 9 8 7 7 7 7 8 8 7 7 6 6 6 5 3 1 1 2 4 7 10 14 16 18 20 21 21 21 21 21 22 22
18 17 17 17 16 16 16 15 15 14 12 11 10 10 9 9 10 10 11 11 10 9 7 4 2 3 3 3 4 4 4 5 7 8 10 10 11 13 13 13 13 15 17 19 19 18 17 15 13 11 10 8 7 7 9 10 10 8 8 8 9 8 8 9 9 9 7 6 4 2 2 3 5 8 12 15 17 18 20 21 22 22 22 22 23 24
18 17 16 16 15 14 14 14 13 12 11 10 10 10 9 7 6 5 5 4 2 1 4 6 7 6 6 6 6 6 5 5 6 7 8 9 10 12 14 16 18 20 22 23 24 25 25 24 22 19 16 11 7 5 7 10 11 10 10 9 9 8 8 10 11 11 10 9 7 5 4 4 5 8 12 15 17 18 19 21 22 23 23 24 24 25
18 17 16 15 14 13 12 13 12 11 11 10 11 11 11 10 9 8 7 7 7 8 8 8 7 6 5 5 6 7 7 7 7 7 7 7 8 8 10 11 13 15 18 20 21 23 25 27 27 26 24 19 13 9 9 10 11 12 12 11 10 9 9 11 12 13 13 12 10 9 8 8 8 9 13 15 16 16 18 20 22 24 25 26 27 27
18 17 16 15 14 13 12 12 12 11 11 11 10 11 11 12 12 12 11 11 11 10 9 8 7 6 4 5 6 7 7 7 6 6 6 6 5 5 5 6 7 9 10 12 13 15 17 19 22 25 28 26 21 16 12 11 11 12 13 13 12 11 11 12 13 14 14 13 13 12 11 11 11 12 15 16 16 16 18 19 21 23 25 26 29 30
17 16 16 15 14 13 13 12 12 12 11 11 11 11 11 11 11 11 11 11 10 10 9 9 9 7 6 6 6 7 7 7 6 5 5 4 3 3 2 2 3 3 3 4 4 6 6 6 9 14 20 26 27 23 18 13 11 11 11 12 13 13 13 13 14 15 15 14 14 13 13 12 12 13 14 15 15 14 15 17 19 21 24 26 29 31
Wind_Direction
280 282 283 284 285 285 284 283 283 284 284 284 284 283 283 282 281 280 279 278 278 277 277 276 276 276 276 275 275 275 274 274 273 272 271 269 268 267 266 265 265 264 264 265 267 268 269 270 271 271 271 271 271 271 271 271 271 271 270 269 269 268 267 267 268 269 269 268 267 264 262 263 265 265 263 260 258 258 259 259 258 257 255 254 253 252
280 281 282 283 283 284 283 283 283 282 283 283 283 283 283 282 281 280 280 278 277 276 275 275 274 274 274 274 274 275 274 274 274 273 272 271 270 268 267 266 265 264 264 265 266 267 268 269 270 271 271 271 271 271 271 271 270 270 269 268 268 267 267 268 269 269 269 268 266 264 261 261 264 266 265 263 260 258 257 257 257 255 254 252 251 250
281 282 282 282 282 282 282 282 282 282 281 281 282 282 281 281 280 280 279 278 277 275 274 273 273 273 273 273 272 272 272 272 272 272 272 271 270 269 268 267 266 265 265 265 266 267 268 269 270 270 271 271 271 271 271 270 270 269 268 267 267 267 267 268 268 269 269 268 266 264 261 260 261 263 264 264 264 262 260 258 256 254 252 251 250 250
280 280 281 282 281 280 279 280 281 281 281 281 280 280 280 279 279 278 278 277 277 276 274 273 272 272 271 271 270 270 270 270 271 271 271 270 269 268 267 266 266 266 265 266 266 267 268 269 270 270 271 271 271 271 271 270 269 268 267 266 266 266 267 267 267 268 267 267 265 263 261 260 260 261 262 263 264 264 263 262 259 256 254 252 250 249
277 277 279 280 280 279 279 279 279 280 280 280 280 279 278 277 277 277 277 276 276 275 275 274 272 271 270 270 269 269 269 270 270 270 269 268 267 266 266 265 265 265 266 266 267 267 268 268 269 270 271 271 272 272 271 270 269 268 266 265 265 265 266 266 266 266 266 265 264 262 261 259 258 259 261 262 262 263 263 262 262 260 258 255 253 251
276 276 277 277 277 277 278 278 278 279 280 280 279 278 277 276 276 276 276 276 276 275 275 275 274 272 271 270 269 269 269 269 269 269 268 268 267 266 265 265 265 265 265 266 266 267 267 268 269 270 271 272 272 272 271 270 269 268 266 265 264 264 265 265 265 264 264 263 262 261 260 258 258 258 260 261 261 262 262 262 261 261 259 258 256 254
276 275 276 275 274 274 276 276 276 276 277 278 279 278 277 276 276 275 275 274 275 275 276 276 275 273 271 270 269 269 269 268 268 268 268 268 267 266 266 265 265 265 265 265 266 266 266 267 268 270 271 272 272 272 271 271 270 268 267 266 264 263 263 263 263 263 262 262 261 261 260 258 258 258 259 260 261 261 261 261 260 260 259 259 257 256
275 275 274 273 273 273 274 274 273 273 273 274 276 277 277 277 276 275 275 274 274 274 275 275 275 273 271 270 269 269 269 268 268 268 268 268 267 267 266 265 264 264 264 264 264 264 265 266 268 269 271 271 271 271 271 270 270 269 268 266 265 263 262 262 262 262 261 261 261 261 260 259 258 258 258 259 260 261 261 260 260 259 258 258 257 257
272 273 273 271 271 272 273 273 272 271 270 270 271 273 274 275 276 276 276 275 274 273 273 273 273 272 271 270 269 269 268 268 267 267 267 267 267 266 265 264 263 262 262 262 262 263 264 266 268 269 270 270 270 270 270 270 269 269 268 267 265 263 262 262 261 261 261 260 260 260 260 259 258 258 258 258 259 260 260 259 259 258 257 257 256 256
268 269 270 270 269 269 270 271 271 270 269 268 268 268 269 271 273 274 275 274 273 272 272 270 270 270 271 270 269 268 267 267 266 266 266 266 265 264 263 262 260 260 260 260 261 262 264 266 267 268 269 269 269 269 269 269 269 269 268 267 265 263 262 261 261 261 260 260 260 259 259 258 258 257 257 258 258 258 258 258 258 257 257 256 256 256
267 267 268 269 269 268 267 267 269 269 269 267 266 265 265 264 266 268 271 272 273 272 272 270 268 268 269 270 269 268 266 265 264 264 265 265 265 263 262 260 259 259 259 260 261 263 265 266 267 268 268 268 268 268 269 269 269 268 267 266 265 263 262 261 261 260 260 260 259 258 258 257 257 256 256 256 256 256 256 256 257 257 256 256 256 256
266 267 267 268 268 268 267 266 267 267 267 265 264 264 263 261 260 260 262 266 269 271 271 271 269 267 266 267 267 267 265 263 262 262 262 262 262 261 260 258 257 257 258 260 262 264 265 266 266 266 267 267 268 268 268 268 268 267 266 265 264 263 262 261 261 260 260 259 258 257 257 256 256 256 255 255 255 254 254 254 255 255 255 255 255 256
265 266 266 267 267 267 267 267 267 266 263 261 259 260 262 261 260 257 257 259 263 267 270 271 271 269 267 265 265 265 265 264 263 262 261 262 262 261 259 257 256 256 258 260 262 264 264 265 265 266 266 267 267 268 268 267 267 266 265 264 263 262 261 261 260 260 259 258 257 257 256 256 255 255 254 254 253 252 252 252 253 253 254 254 255 255
264 264 265 265 264 264 264 264 264 263 261 259 258 259 261 262 261 259 258 258 261 265 268 269 270 270 269 267 265 264 264 264 264 264 264 265 266 264 261 259 258 258 259 261 262 263 263 264 265 266 266 267 267 267 267 267 266 266 265 263 262 262 261 261 260 259 258 257 256 255 255 255 254 254 254 253 252 251 250 249 250 251 252 252 253 254
262 263 263 262 263 263 263 263 262 261 260 260 260 261 262 262 260 258 258 259 262 265 267 268 268 268 268 267 265 264 262 262 262 263 264 266 266 264 261 259 259 260 260 261 262 262 263 264 264 265 266 267 267 267 267 267 266 266 265 264 263 262 261 260 259 258 257 256 255 254 254 254 254 254 253 252 251 249 248 247 248 249 249 250 251 252
261 261 261 261 262 262 262 262 261 261 261 262 262 262 261 260 259 257 257 259 263 265 266 267 268 268 268 267 265 263 259 258 258 259 261 263 263 262 259 258 259 260 261 261 261 262 263 263 263 264 265 265 265 266 266 267 267 267 266 265 264 263 262 261 259 257 256 254 253 252 252 252 253 253 252 251 250 249 247 247 247 247 248 249 250 251
260 260 260 261 262 262 263 262 261 261 261 262 261 260 258 257 257 257 257 259 261 263 262 263 263 264 268 269 266 262 258 255 256 257 259 260 261 260 258 256 256 258 260 262 263 263 262 262 262 262 262 263 264 266 266 267 267 267 266 265 264 263 262 261 259 256 253 251 250 250 251 251 252 252 251 250 249 248 247 247 247 247 247 248 248 249
260 260 260 261 262 263 263 263 262 262 261 261 260 260 258 256 255 255 255 257 258 259 259 260 259 258 263 267 267 265 261 258 257 258 258 259 259 260 259 257 257 259 260 261 261 261 261 261 260 260 260 263 265 267 268 269 269 268 266 264 263 263 263 261 258 255 251 249 249 250 251 252 252 252 252 250 249 248 247 247 247 247 248 248 248 248
261 261 261 261 262 262 263 263 263 262 261 260 260 259 258 256 254 253 251 252 252 252 254 256 257 258 260 263 265 266 265 263 261 261 259 260 261 261 260 259 258 258 259 260 261 261 261 261 260 259 260 263 267 269 271 271 270 268 266 264 263 263 263 262 259 254 250 249 249 251 252 253 253 253 252 251 250 249 248 248 248 248 248 247 247 248
263 262 261 261 262 263 263 262 262 261 260 260 259 257 256 255 253 253 252 252 252 251 252 252 254 257 258 261 263 265 265 264 263 262 262 262 263 262 261 259 259 258 258 259 260 261 262 262 262 262 263 266 269 271 271 270 269 269 269 267 266 265 263 261 257 254 251 251 251 253 254 254 254 253 252 251 250 249 248 248 248 248 247 247 247 247
263 262 262 261 262 262 261 262 262 261 261 259 257 254 252 251 251 251 252 252 252 251 251 250 250 253 256 259 262 263 263 262 260 261 262 262 262 262 262 262 260 259 258 259 261 262 262 263 264 265 266 268 270 269 266 267 269 272 274 274 273 270 266 261 256 252 251 251 252 253 254 253 252 250 249 248 247 247 247 247 246 246 246 246 246 246
261 262 262 262 261 260 260 261 261 261 260 258 255 252 250 250 251 251 251 251 250 249 250 250 251 253 255 258 260 262 262 260 258 257 260 261 261 262 264 264 262 261 261 262 264 265 265 265 266 267 268 269 268 266 263 264 268 271 273 275 276 275 271 265 258 254 252 252 253 252 252 250 247 245 243 243 243 244 244 244 244 244 245 245 245 245
258 259 261 261 259 259 259 260 260 260 259 256 254 252 252 251 250 250 250 250 250 250 250 251 254 256 257 258 260 261 261 259 256 254 256 256 259 262 264 264 263 263 263 264 266 267 267 267 266 265 266 266 265 263 262 264 265 266 268 272 275 276 273 267 261 256 254 253 252 251 250 248 247 246 245 245 245 245 244 244 244 244 244 245 245 246
254 256 258 258 257 256 256 257 258 258 258 255 253 252 252 251 251 252 253 253 253 253 253 254 255 256 257 257 258 259 259 258 255 253 253 255 260 263 264 264 264 264 265 266 267 268 269 268 266 264 262 263 263 262 262 263 264 264 266 269 273 275 273 269 263 259 257 255 254 252 252 251 252 252 253 253 252 251 249 248 247 246 247 247 248 249
253 254 254 255 255 255 256 256 257 257 256 254 253 253 253 253 253 253 253 252 252 252 253 254 254 255 255 255 256 257 258 257 253 250 251 255 260 262 264 264 265 265 266 267 268 269 268 267 265 263 261 261 262 263 264 263 264 264 265 267 270 271 271 270 267 263 262 260 259 257 255 254 254 254 254 255 255 254 253 251 250 249 249 250 250 251
255 255 255 255 255 255 255 255 255 255 254 253 252 252 252 253 252 251 248 247 247 249 249 249 249 250 253 254 255 256 257 256 253 249 249 253 259 262 263 264 264 264 265 267 268 266 264 262 260 259 259 260 261 263 265 264 263 263 263 264 265 266 266 267 268 267 265 263 261 259 257 255 254 254 254 255 254 254 254 253 252 251 251 251 252 253
258 258 257 257 257 257 256 256 255 254 254 253 251 251 252 252 250 247 244 245 245 245 244 242 245 249 251 252 253 255 256 256 254 250 248 249 254 259 261 262 262 262 263 265 265 264 262 260 261 261 262 262 262 263 265 264 263 262 262 263 263 263 264 264 265 265 265 263 262 260 257 255 255 255 255 255 254 254 253 253 252 252 252 252 253 254
261 261 260 260 259 259 258 258 257 256 255 254 253 252 252 251 250 248 248 248 247 245 243 243 246 249 248 246 252 255 256 255 253 250 248 248 249 255 258 260 260 260 261 264 266 266 265 264 265 266 266 265 264 263 263 264 263 262 261 260 260 261 262 263 263 263 263 262 261 259 257 256 255 255 255 255 254 254 253 253 252 253 253 253 254 255
266 265 264 262 262 261 261 260 259 258 257 256 254 253 252 251 249 249 250 249 248 245 244 242 243 246 249 252 255 256 255 254 252 251 249 248 249 253 256 258 258 258 260 264 268 269 268 268 267 266 265 265 264 263 262 262 260 259 259 257 257 257 259 259 260 260 261 261 260 258 256 256 256 256 255 255 254 254 253 252 252 253 253 253 254 254
275 272 269 266 264 263 262 261 260 259 257 256 255 254 252 251 250 250 250 249 245 242 241 243 245 247 250 254 256 255 253 252 252 250 248 246 249 253 254 256 256 256 258 262 268 271 270 270 268 266 263 261 261 260 259 258 256 254 254 253 253 254 255 255 256 257 257 257 256 256 255 255 255 255 255 255 254 253 252 252 252 252 253 254 254 254
280 277 274 271 269 266 263 260 259 257 257 255 254 253 252 251 250 249 248 246 242 239 241 245 247 248 248 247 247 247 249 253 252 249 244 243 246 251 252 254 255 255 254 253 254 270 270 271 271 269 264 261 258 256 255 253 251 249 248 249 250 251 252 253 253 253 253 252 252 253 253 254 254 255 255 254 253 252 252 251 251 252 252 253 253 252
279 277 275 273 271 269 265 261 258 256 255 254 252 251 250 249 249 247 246 243 240 239 242 245 247 247 247 243 243 247 252 256 255 250 243 241 245 248 249 251 253 254 253 249 247 253 265 273 274 273 270 265 260 256 254 251 247 245 245 246 248 250 251 251 251 250 250 250 250 251 251 252 253 253 253 252 252 251 250 250 249 250 251 251 250 250
277 276 273 272 270 267 264 260 257 254 253 251 249 248 248 246 246 245 243 241 240 239 240 242 244 246 246 246 247 250 253 255 255 251 245 242 244 248 249 249 250 253 253 250 248 248 253 260 268 271 272 268 263 258 253 249 245 243 243 244 245 247 249 249 249 248 249 250 250 251 251 251 251 251 250 250 249 249 248 248 248 248 249 249 248 248
276 275 273 271 268 265 261 258 255 253 251 249 248 246 245 243 241 240 239 238 238 237 237 238 240 241 244 246 248 250 252 253 252 249 244 241 242 246 248 248 248 251 253 253 251 251 253 255 260 265 268 266 261 255 249 245 243 242 242 242 243 245 247 248 248 247 248 249 250 250 250 249 248 248 247 247 246 245 245 245 245 247 249 247 246 246
277 276 274 271 267 264 262 261 258 255 252 250 247 245 243 240 238 236 236 235 235 236 236 237 237 238 240 243 246 250 252 252 251 248 242 238 238 241 245 246 247 249 251 253 253 252 252 254 256 257 261 263 259 251 246 242 240 240 241 242 243 244 246 247 247 247 247 247 247 247 247 246 246 245 244 243 242 241 239 239 242 245 247 246 245 244
278 277 275 273 271 269 267 265 262 259 255 251 248 245 241 238 236 235 234 233 233 234 235 235 237 238 239 241 243 247 250 252 252 248 242 237 235 236 240 244 246 247 248 250 251 251 250 253 254 254 253 252 251 247 244 241 237 235 236 239 241 243 244 246 245 245 244 245 245 245 245 245 245 243 241 240 238 236 234 235 238 242 243 242 241 241
279 278 278 277 275 273 271 268 265 261 257 253 249 245 241 237 235 233 233 233 232 233 233 235 236 237 238 240 242 245 248 251 251 248 243 239 236 234 237 242 244 245 245 246 247 249 249 251 253 252 249 244 240 240 241 233 227 225 228 232 235 237 239 242 242 240 240 242 243 244 244 245 245 243 240 236 234 231 230 230 232 234 236 236 236 237
279 280 280 279 277 275 272 270 267 263 259 255 251 246 241 237 234 232 232 232 232 231 232 233 235 237 238 239 241 243 246 248 248 247 244 241 238 236 237 241 243 244 242 243 245 247 248 249 250 250 249 246 245 242 231 213 207 212 218 223 226 229 233 237 237 237 237 240 243 244 244 244 243 240 235 231 227 226 225 224 223 223 225 225 227 231
281 281 281 281 279 277 274 271 268 265 261 257 253 248 243 238 235 233 232 232 232 232 232 233 235 237 239 240 242 243 245 246 246 246 245 243 240 238 238 240 243 244 244 243 244 245 245 246 247 249 252 254 248 235 220 204 197 200 208 215 222 228 233 235 236 236 238 241 244 246 245 241 236 230 222 213 210 211 213 212 211 211 211 211 211 214
281 281 282 282 283 281 278 275 272 268 264 259 254 249 244 239 236 233 232 232 232 233 233 234 236 238 240 241 243 244 245 246 247 246 246 244 242 240 239 240 242 244 244 244 243 243 243 244 245 247 249 249 243 218 205 195 192 192 197 206 225 238 238 235 234 235 237 239 243 246 243 237 227 214 198 178 166 158 153 153 164 175 179 178 174 170
285 286 287 288 288 288 286 283 278 272 265 258 253 248 243 238 234 232 231 231 231 233 234 234 236 238 241 242 244 244 245 245 246 246 246 245 243 242 241 241 242 243 244 244 243 242 242 244 246 247 247 244 235 209 189 183 185 188 192 199 220 236 243 238 233 234 235 237 238 238 238 232 219 193 156 124 110 104 101 98 100 109 124 132 135 131
290 290 291 291 292 293 294 293 287 278 266 256 248 243 239 236 233 231 230 229 230 231 231 232 233 235 238 241 242 242 242 242 243 244 245 245 245 245 244 244 244 245 247 249 251 252 252 253 253 252 248 237 222 196 171 171 177 183 189 201 222 243 269 269 176 182 245 245 233 226 225 217 196 156 118 99 90 87 87 86 85 84 86 90 98 107
293 291 291 291 292 295 299 301 298 287 269 253 244 239 237 234 232 231 229 229 229 229 230 229 230 231 233 234 233 232 232 235 239 243 246 249 250 251 251 250 250 250 252 255 259 262 261 258 252 246 237 216 193 170 148 147 153 160 172 191 225 281 302 315 19 49 12 317 233 210 198 179 147 117 100 90 84 81 80 79 78 77 77 78 80 84
293 292 292 293 295 297 301 304 306 303 293 276 260 250 244 239 235 233 233 233 233 232 231 230 231 232 232 225 207 179 164 91 314 257 256 259 260 260 258 256 255 254 253 254 255 255 250 240 219 194 177 166 157 147 137 125 114 107 100 100 64 23 357 326 321 328 333 327 294 222 174 141 116 99 89 83 79 77 75 74 73 73 74 77 78 79
294 294 296 297 299 300 301 304 308 312 311 307 298 288 278 267 257 252 249 249 249 247 245 241 238 233 222 181 132 92 58 49 45 39 14 318 283 267 257 251 248 247 245 243 238 223 175 129 110 112 118 117 115 110 104 98 91 83 75 67 56 46 30 2 344 338 332 326 318 309 133 115 104 92 83 77 73 71 69 68 67 67 70 73 75 77
300 300 302 304 305 305 305 309 313 315 315 314 312 309 303 295 286 277 269 265 263 261 259 250 240 214 120 98 86 70 48 40 38 39 43 48 58 70 88 117 143 151 147 137 127 118 110 100 95 93 93 90 85 81 78 77 74 67 59 55 50 45 42 35 24 11 358 349 344 352 63 88 92 89 82 76 71 67 65 64 63 63 66 69 72 74
308 309 310 312 313 315 317 322 326 327 327 329 331 328 319 307 295 284 275 269 265 261 256 238 183 113 84 78 72 62 51 42 37 37 41 47 58 69 78 88 97 101 98 92 87 84 80 78 77 78 79 77 70 60 57 58 59 55 49 47 44 40 35 33 34 32 28 28 27 26 43 68 82 86 83 79 73 67 63 61 61 62 64 67 70 73
316 317 319 321 324 327 331 337 342 344 346 351 357 1 359 348 330 309 291 276 256 130 97 92 88 85 80 76 73 71 66 58 49 44 43 47 57 67 76 83 87 89 88 86 82 77 72 68 65 63 62 62 59 51 49 49 49 49 47 46 44 40 38 36 38 42 45 50 53 52 50 58 73 83 84 81 76 69 63 59 58 60 63 67 70 73
323 325 328 331 334 337 341 347 351 354 357 359 4 10 18 25 30 38 53 68 79 84 84 85 86 86 82 75 73 72 71 66 59 53 49 51 59 68 76 82 86 87 86 84 81 76 71 66 61 57 55 53 52 48 45 44 46 49 50 48 45 43 41 40 41 44 49 55 59 60 59 61 69 80 84 82 78 71 64 59 57 58 61 66 70 73
330 333 336 339 341 344 347 351 354 357 360 2 5 11 20 30 41 50 59 67 73 78 82 86 88 86 81 76 73 72 70 66 59 52 47 51 58 65 68 78 85 87 88 86 82 78 73 66 59 53 49 48 46 44 41 37 41 47 49 46 43 44 45 43 43 46 51 55 57 59 60 61 67 76 82 82 79 73 68 61 56 56 60 65 69 73
335 339 342 345 347 349 351 354 357 1 2 4 9 15 22 30 38 46 55 62 68 73 77 81 83 83 83 81 78 76 73 67 59 49 41 41 46 49 47 47 53 62 74 79 79 77 74 70 58 49 44 41 42 43 41 36 37 42 44 40 39 42 46 46 47 50 54 55 56 56 57 57 60 66 74 79 79 75 69 63 57 55 59 64 69 72
Height
735 733 732 732 731 728 725 725 725 724 721 721 720 720 719 718 717 717 716 715 714 713 712 711 710 709 708 707 707 706 705 704 703 702 701 700 698 697 697 696 695 694 693 692 690 689 688 687 687 687 686 686 685 684 683 683 682 682 681 681 680 680 679 679 679 678 678 677 677 676 676 675 675 674 674 673 673 673 673 673 673 673 673 673 674 674
733 732 730 730 729 727 723 722 722 722 720 718 717 717 716 715 714 713 712 712 711 710 709 708 707 706 705 704 704 703 702 701 700 699 697 696 695 694 693 692 691 690 689 688 687 685 684 684 683 683 682 682 681 681 680 680 679 678 678 677 677 676 676 676 675 675 674 674 673 672 672 672 671 670 670 670 670 670 670 670 670 670 670 670 670 671
732 730 728 728 727 725 722 719 719 719 718 716 715 714 713 712 711 710 709 708 707 706 706 705 704 703 702 701 700 700 699 698 697 696 694 693 692 691 689 688 687 687 686 684 683 682 681 680 679 679 678 678 677 677 677 676 675 675 674 673 673 672 672 672 671 671 670 670 669 669 668 668 667 667 666 666 666 666 666 667 667 667 667 667 667 667
730 728 726 726 725 722 720 718 717 716 715 714 712 712 711 710 708 706 706 705 703 702 702 701 701 699 698 697 696 696 695 694 693 692 691 690 689 687 686 685 684 683 682 681 679 678 677 677 676 675 674 674 673 673 672 672 671 671 670 670 669 668 668 667 667 667 666 666 665 665 665 664 664 663 662 662 662 662 662 662 662 663 663 663 663 664
727 727 725 724 722 719 717 716 715 713 712 711 710 708 707 706 705 703 702 702 700 699 698 697 697 696 694 693 692 691 691 690 689 688 687 686 685 684 683 682 681 680 678 677 676 675 674 673 672 671 670 669 669 669 668 668 667 667 666 666 665 664 664 663 663 662 662 662 662 661 661 661 660 660 659 658 658 658 658 659 659 659 659 659 660 660
724 724 723 722 720 717 714 713 712 711 710 708 707 706 704 703 702 700 699 698 697 696 695 694 693 692 691 689 688 687 687 686 685 684 683 682 682 681 679 678 677 676 675 674 673 672 670 669 668 667 666 665 665 664 664 663 663 662 662 661 661 660 660 659 659 658 658 658 657 657 657 657 657 656 656 655 655 655 655 655 656 656 656 656 656 657
721 721 721 719 717 715 713 711 710 709 708 706 704 702 701 700 698 697 696 695 694 693 692 691 690 688 687 686 684 684 683 682 681 680 680 679 678 677 676 675 673 672 671 670 669 668 667 666 664 663 662 661 660 660 659 659 658 658 657 657 656 656 655 655 655 654 654 654 653 653 653 653 653 652 652 652 651 651 651 652 652 653 653 653 653 654
719 717 717 716 714 712 710 708 707 706 706 704 702 700 697 696 695 694 693 692 691 690 689 687 686 685 683 682 681 680 679 678 677 677 676 675 674 673 672 671 669 668 667 666 665 664 663 662 661 659 658 657 656 655 655 654 654 653 653 652 652 652 651 651 650 650 650 650 649 649 649 649 649 649 649 648 647 647 647 648 648 649 650 650 651 651
717 715 713 712 712 710 707 704 702 702 703 702 700 698 695 693 692 690 690 689 688 687 686 685 682 681 679 678 678 677 676 675 674 673 672 671 669 668 667 667 665 664 663 663 662 661 659 658 657 656 654 653 652 651 650 650 649 649 648 648 647 647 647 647 646 646 646 646 645 645 645 645 645 645 645 645 644 644 644 644 645 645 646 647 647 648
715 712 710 708 708 707 704 700 698 698 700 699 697 695 694 691 689 687 686 684 683 683 683 681 679 677 675 675 674 673 672 671 670 669 668 667 665 664 663 662 662 661 660 659 657 657 655 654 653 652 650 649 648 647 646 645 645 644 644 643 643 642 642 642 642 642 641 641 641 641 641 641 641 641 641 641 641 641 640 640 641 641 642 643 643 644
711 709 708 705 703 702 701 697 695 694 695 695 693 692 690 689 687 686 684 681 679 679 678 677 676 675 672 671 670 669 668 667 665 664 663 662 661 660 659 658 657 657 656 655 653 652 651 650 649 648 647 645 644 643 642 641 641 640 639 639 638 638 638 637 637 637 637 637 637 637 637 637 637 637 637 637 637 637 637 636 637 637 638 638 639 640
707 706 704 702 699 697 696 693 692 692 692 691 689 687 685 684 684 684 681 678 676 675 674 673 672 671 669 668 666 665 665 663 661 660 659 658 657 656 655 654 653 653 652 651 649 648 647 646 645 644 642 642 640 639 638 637 636 635 635 634 634 633 633 633 632 632 632 632 632 632 632 632 632 632 632 632 633 633 633 632 632 633 634 634 635 636
704 702 700 698 695 693 691 690 688 688 687 686 684 682 680 680 680 680 678 675 673 672 671 670 668 666 665 664 663 662 661 660 658 657 656 655 654 653 652 651 650 648 648 647 645 644 643 642 641 640 639 638 637 635 634 633 632 631 630 630 629 629 628 628 628 628 627 627 627 627 627 627 627 628 628 628 628 628 629 628 628 629 629 630 631 632
700 698 696 694 691 688 687 686 684 683 682 680 679 677 676 676 676 676 674 672 669 668 668 666 664 662 661 660 660 659 658 656 655 654 652 651 651 650 650 648 646 645 644 643 642 640 639 638 637 636 635 634 632 631 630 629 628 627 626 625 625 624 623 623 623 623 623 622 623 623 623 623 623 623 623 624 624 624 624 624 624 625 625 626 626 627
695 694 692 688 685 683 681 681 679 677 676 675 674 673 673 672 672 672 671 668 666 665 665 663 661 658 656 656 655 655 655 653 652 650 648 647 646 646 646 645 643 642 641 640 638 636 636 635 634 632 631 630 629 627 627 625 624 623 622 621 620 619 619 618 618 618 618 618 618 618 618 618 619 619 619 619 619 620 620 620 620 621 621 621 622 623
691 689 686 682 679 677 676 675 674 673 671 671 671 671 670 669 668 667 667 665 663 662 662 660 657 654 652 651 651 651 651 650 648 647 645 643 642 642 642 641 640 638 638 637 635 633 632 631 630 628 627 626 625 624 623 622 621 620 618 617 616 615 614 614 613 613 613 613 613 614 614 614 614 614 615 615 615 615 616 616 616 616 617 617 618 619
685 683 680 677 674 672 671 671 670 669 667 667 667 667 666 665 664 664 663 662 660 659 658 657 655 652 647 645 645 647 647 646 645 643 642 640 638 638 638 637 636 635 634 633 631 630 629 627 626 625 624 622 621 620 619 618 617 616 615 614 612 612 611 610 609 608 608 608 609 609 609 610 610 610 610 611 611 611 612 612 612 612 613 613 614 615
680 678 675 672 670 667 667 667 666 665 664 663 663 662 662 661 661 660 659 658 657 655 654 652 651 648 645 642 640 641 644 643 642 640 639 637 635 634 635 634 632 631 630 628 627 626 625 624 622 621 620 619 618 617 616 615 614 612 611 610 609 607 606 605 604 603 604 604 604 605 605 605 606 606 606 606 607 607 608 608 608 608 609 609 610 611
674 673 671 668 666 664 663 662 662 661 661 660 659 659 658 657 657 656 655 654 652 651 650 648 646 644 642 639 637 637 640 640 639 637 636 633 632 631 631 630 629 627 626 624 623 622 622 620 619 617 617 616 615 614 613 612 610 609 607 606 604 603 602 601 600 600 600 600 601 601 601 602 602 602 602 602 603 603 604 604 604 605 605 606 606 607
670 668 667 665 663 661 659 657 657 657 657 656 655 655 653 652 652 651 650 649 648 647 646 644 642 639 637 635 633 634 636 637 637 634 632 630 628 627 627 627 626 624 622 620 619 619 618 617 615 614 613 612 612 611 610 608 607 605 603 602 601 600 598 597 597 597 597 597 597 597 597 597 597 597 597 598 599 599 600 600 601 601 602 602 602 603
665 662 661 661 660 657 654 652 652 652 652 652 652 650 649 648 647 646 645 644 643 642 642 640 637 634 633 632 631 630 632 634 633 631 629 627 624 623 623 623 622 621 619 616 615 615 614 613 612 610 609 608 608 607 606 604 603 602 600 599 597 596 595 595 594 594 593 593 593 593 593 593 593 593 593 594 595 595 596 597 597 598 598 598 599 599
661 657 656 656 655 653 649 648 647 647 648 648 647 646 644 643 642 641 640 640 639 637 636 634 632 631 630 629 627 626 628 630 630 628 627 624 621 618 619 619 619 617 615 612 611 610 610 609 608 606 605 604 603 602 601 600 599 598 597 596 595 594 592 592 591 590 589 589 589 589 589 589 589 589 589 590 591 592 592 593 594 594 595 595 596 596
655 652 650 650 649 647 645 643 643 643 643 643 642 640 639 638 637 636 636 635 634 633 631 629 628 627 627 625 623 623 624 625 625 625 624 621 617 614 615 615 615 613 611 609 607 607 606 605 604 602 601 600 599 598 597 597 596 595 593 592 591 590 590 589 588 587 586 586 586 586 586 586 586 586 587 587 588 589 589 590 591 591 592 592 592 593
649 646 644 643 642 642 640 639 638 638 638 638 637 635 634 634 633 632 631 631 630 628 627 627 626 624 622 622 620 619 619 620 622 622 620 617 613 611 611 612 611 610 607 605 604 603 603 601 600 598 597 596 595 594 593 593 592 591 590 588 588 587 587 586 585 584 583 583 582 583 583 583 583 584 584 585 586 586 587 587 587 588 588 589 589 589
642 640 638 637 636 635 635 634 634 633 633 633 632 631 630 630 629 628 627 627 626 625 624 624 622 620 617 617 616 615 614 616 617 617 616 613 610 608 607 608 608 607 604 602 601 601 600 598 596 594 593 592 591 590 590 589 588 587 586 585 584 584 584 583 582 582 581 581 581 581 581 581 581 582 582 582 583 584 584 584 585 585 585 586 586 586
637 634 632 631 630 629 629 628 628 627 628 627 627 626 626 626 626 625 623 622 622 621 621 619 617 614 613 613 612 610 609 611 613 613 612 611 608 605 604 605 605 604 601 599 598 597 597 594 592 590 589 587 587 586 586 585 585 584 583 581 581 580 581 581 580 579 579 579 578 578 578 578 578 579 579 580 580 581 581 582 582 582 582 583 583 583
631 629 628 626 625 624 624 623 622 622 622 622 622 622 622 622 622 620 618 617 617 618 617 614 612 610 609 608 607 605 605 607 608 608 609 608 606 603 601 601 601 601 598 596 595 594 593 591 589 587 585 584 582 582 581 581 581 580 579 578 577 577 577 577 577 577 576 576 576 576 576 576 576 576 576 577 577 577 578 578 578 579 579 580 580 579
626 625 623 622 621 620 619 618 617 617 617 617 617 618 618 618 617 615 612 612 613 614 612 610 608 606 605 603 602 601 602 602 603 603 605 605 603 600 598 598 598 597 596 593 592 590 589 587 586 584 582 580 579 578 577 577 577 576 576 575 574 574 574 574 574 574 573 573 573 573 573 573 573 573 573 573 574 574 575 575 575 576 577 577 577 576
622 621 619 618 617 616 614 613 612 612 611 611 612 612 613 614 612 609 607 608 610 609 607 606 604 603 601 600 599 598 598 597 597 599 602 602 600 597 595 595 595 594 593 592 589 587 585 583 582 580 578 577 576 575 573 573 572 572 572 572 572 571 571 571 571 571 571 571 570 570 570 570 570 570 570 570 570 571 571 572 572 573 573 573 572 572
619 617 615 613 612 611 610 608 607 606 605 605 606 607 607 608 606 604 604 605 605 604 602 601 600 599 599 598 597 595 592 591 592 596 599 599 597 594 593 592 592 591 591 590 587 584 581 579 577 577 575 573 572 571 570 569 569 569 569 568 568 568 567 567 567 568 567 567 567 567 567 567 567 567 567 567 567 567 567 568 569 570 570 569 568 567
615 613 611 609 607 606 605 603 602 600 599 599 600 601 602 602 601 600 600 600 599 598 597 596 596 596 596 596 594 591 586 585 588 593 596 595 593 591 590 590 588 587 588 588 586 582 578 574 573 572 572 570 568 567 567 566 566 566 565 565 565 564 564 564 564 564 564 564 564 564 564 564 564 564 564 564 564 564 564 565 566 566 566 565 564 563
610 609 607 605 603 602 601 599 597 596 595 594 594 595 595 595 595 595 594 594 593 593 592 592 592 592 592 592 590 586 582 581 585 589 592 592 590 588 587 587 585 584 584 584 584 581 577 573 570 568 568 567 566 565 564 564 564 563 563 562 562 561 561 562 562 562 561 561 561 561 561 561 561 560 560 560 560 560 561 561 562 562 562 561 560 558
606 604 602 601 599 597 596 594 593 591 590 589 589 588 589 589 589 589 589 589 588 588 588 588 588 588 587 587 585 582 579 579 582 586 588 588 587 585 583 583 582 581 580 581 580 579 576 572 569 567 566 565 563 562 562 562 562 561 561 560 559 558 558 559 559 559 558 558 558 558 557 557 557 557 557 557 557 557 557 557 558 558 558 557 556 554
602 600 598 597 595 593 591 590 588 587 585 584 583 583 583 583 583 583 583 583 584 584 584 584 584 584 583 582 581 578 576 576 578 582 585 585 583 582 580 579 578 577 577 577 576 575 573 570 568 566 564 562 561 560 559 559 559 559 558 558 557 557 556 556 556 556 556 555 555 555 554 554 554 554 553 553 553 553 553 553 554 554 553 552 551 550
598 596 594 593 591 589 587 585 584 582 581 580 579 578 578 578 578 578 578 578 579 579 579 579 579 580 579 578 577 574 572 572 575 578 581 580 579 578 577 575 574 574 574 573 572 571 569 567 565 563 562 560 558 557 556 556 556 556 556 555 555 554 554 554 554 553 553 553 552 552 551 551 551 550 550 549 549 549 549 550 550 550 549 547 547 546
595 593 591 590 588 586 584 582 581 579 577 576 575 574 574 574 574 574 574 574 574 574 575 575 575 575 575 574 573 571 569 570 572 575 576 576 575 575 573 571 570 570 571 570 568 567 566 563 562 560 559 557 556 554 553 553 553 553 553 553 552 552 552 552 552 551 551 550 550 549 548 548 547 547 546 546 546 546 546 546 546 545 544 543 542 541
593 590 588 587 585 583 582 579 577 576 574 572 571 571 570 570 570 570 570 570 570 571 571 571 571 571 571 570 569 568 567 567 569 571 572 572 572 571 569 567 566 567 567 567 565 564 562 561 559 557 556 554 553 552 550 550 551 551 551 551 550 550 550 550 550 549 549 548 547 547 546 546 545 544 543 543 543 542 542 542 542 541 540 538 537 536
591 588 586 584 583 581 579 577 574 572 571 569 568 567 566 566 566 566 566 566 566 567 567 567 567 567 566 566 565 565 564 565 566 567 568 568 568 567 566 564 563 563 564 563 562 561 560 558 556 554 552 551 549 548 548 548 549 549 549 548 549 549 548 548 548 547 547 546 546 545 544 543 543 542 541 540 540 539 539 538 537 537 536 534 532 531
588 586 584 582 580 578 577 574 571 569 567 566 564 564 563 562 562 562 562 562 563 563 563 563 563 563 563 562 562 562 562 562 562 563 564 564 564 564 563 562 561 560 560 560 559 558 557 555 553 551 549 548 547 546 546 546 547 547 547 547 547 547 547 547 546 546 545 545 544 543 542 542 541 540 539 538 537 537 536 535 533 532 531 530 529 527
586 584 581 579 577 576 573 571 568 566 564 562 562 561 561 560 560 560 560 560 560 560 560 560 560 560 560 559 559 559 559 559 559 560 560 560 560 560 560 559 557 557 556 556 555 554 553 551 549 547 546 545 545 545 544 544 545 545 546 546 546 546 545 545 545 544 544 543 543 542 542 541 540 539 537 536 535 534 533 532 530 529 527 527 526 524
584 582 579 577 575 573 571 568 565 563 561 560 559 559 559 558 558 557 557 557 557 557 557 558 558 557 557 556 556 556 556 557 557 557 557 557 557 557 556 555 554 553 553 552 551 550 549 547 546 544 543 543 543 543 543 543 544 544 545 545 545 544 544 544 543 543 543 542 542 541 541 540 539 537 536 535 533 532 530 529 528 526 525 524 523 522
582 580 577 575 573 571 568 565 562 560 558 557 557 556 556 556 556 556 555 555 555 555 555 555 555 555 554 553 553 553 554 554 554 554 553 553 553 553 552 552 551 551 550 549 548 547 546 545 544 542 542 541 542 542 542 542 543 543 544 544 544 543 543 543 542 542 542 542 541 541 540 539 538 536 535 533 532 530 528 527 526 525 524 523 522 521
581 579 576 574 572 569 567 564 561 558 557 555 554 553 553 553 553 553 553 552 552 552 552 552 552 552 552 552 552 552 552 552 551 551 551 551 550 550 549 549 549 548 548 548 547 545 544 543 542 541 540 540 540 541 542 542 542 543 543 543 543 543 543 542 542 542 542 541 541 540 539 538 537 536 534 532 530 528 527 526 525 524 523 522 522 520
580 577 575 572 570 567 565 563 560 558 556 554 553 552 552 551 551 551 550 550 549 549 550 550 550 550 550 550 550 551 551 550 550 550 550 549 549 548 547 547 547 547 547 546 545 544 543 542 541 540 540 539 540 540 541 542 542 542 543 543 543 542 542 542 542 542 541 541 541 540 539 538 537 535 533 531 529 527 526 526 525 524 523 522 522 521
578 576 573 571 569 567 564 562 560 558 556 554 553 552 551 551 550 550 549 549 549 549 549 549 549 549 549 549 550 550 550 550 550 549 549 548 547 547 546 545 545 544 544 544 543 542 542 542 541 540 540 540 540 541 542 542 542 542 543 543 542 542 542 542 542 542 542 541 540 539 538 537 537 535 533 531 528 527 526 526 525 524 524 523 522 521
577 575 572 570 568 566 564 562 559 557 556 554 553 552 551 550 550 549 549 549 548 548 548 548 548 548 549 549 550 550 550 550 550 549 549 548 547 547 546 545 544 543 543 543 542 542 542 542 542 541 541 541 541 542 542 542 542 542 543 543 543 542 542 542 542 542 542 541 540 539 538 537 537 535 533 531 529 527 527 526 526 525 525 524 523 522
577 574 572 570 567 565 563 561 559 557 556 555 553 552 551 550 549 549 548 548 548 548 548 548 548 548 549 550 550 551 551 551 551 550 550 549 549 548 547 546 545 544 544 543 543 543 543 543 543 542 542 542 542 543 543 543 543 543 543 543 543 543 543 542 542 542 542 541 540 539 539 538 537 535 533 531 529 528 528 527 527 527 526 525 524 523
577 574 572 570 568 566 563 562 560 558 557 555 554 552 551 550 550 549 548 548 548 548 548 548 549 550 550 551 551 551 551 552 552 552 551 551 550 549 549 548 547 546 545 545 544 544 544 544 544 544 543 544 544 544 544 544 544 544 544 544 544 544 543 543 543 542 542 541 541 540 539 538 537 536 534 532 531 530 529 529 528 528 527 527 526 525
577 575 573 571 568 567 564 562 561 559 557 556 555 553 552 552 551 550 549 549 549 549 549 550 550 551 551 552 552 552 552 552 552 552 552 552 552 551 551 550 549 548 547 546 545 545 545 544 545 545 546 546 546 546 546 546 545 545 545 545 545 545 544 544 544 543 543 542 542 541 540 539 538 537 535 533 532 532 531 531 530 530 529 528 528 527
578 576 574 572 569 567 566 564 562 561 559 558 556 555 554 553 552 551 551 550 550 550 550 551 551 552 552 552 553 553 553 553 553 553 553 553 553 552 552 551 551 549 548 547 547 546 545 545 546 547 547 547 547 547 547 547 547 546 546 546 546 545 545 545 545 545 544 544 543 543 542 541 539 538 536 535 534 533 533 533 532 532 532 531 530 530
579 577 575 572 571 569 567 565 564 562 561 559 558 557 556 555 554 553 553 552 552 552 552 552 552 552 553 553 554 554 554 554 554 554 554 554 554 553 552 552 552 551 550 549 548 547 547 547 547 548 549 549 549 549 549 548 548 547 547 547 547 547 547 547 547 547 546 546 545 544 543 542 541 540 538 536 535 535 535 536 536 536 535 534 533 533